RH
89 90 70 48 55 72 74 74 61 58 55 49 46 45 75 94 87 80 84 80 76 76 73 67 68 71 70 70 72 69 69 61 63 64 65 66 62 59 59 58 58 59 59 58 58 58 57 55 53
90 70 47 56 65 75 66 67 62 57 50 56 55 62 74 93 77 90 86 78 74 73 71 65 72 73 72 71 71 70 62 63 64 64 65 60 58 58 58 57 58 58 58 58 56 56 56 54 52
58 42 41 70 86 70 64 62 56 51 42 45 56 65 78 91 77 83 79 76 72 74 73 71 78 71 71 69 66 66 63 64 63 64 62 58 56 56 55 55 55 56 58 56 56 54 54 52 52
48 43 45 61 72 65 65 61 51 50 49 47 57 86 81 79 78 82 74 72 74 76 75 78 72 70 68 63 64 63 63 62 61 59 57 55 53 52 52 52 53 54 59 58 54 52 52 52 49
49 47 57 72 68 61 66 60 51 43 54 55 53 80 88 86 79 74 73 72 78 77 75 69 68 68 65 63 63 61 60 60 58 58 57 55 53 52 50 51 51 54 56 53 53 53 53 52 50
47 48 64 69 65 54 55 52 44 41 51 56 63 74 90 81 79 75 73 75 71 77 70 64 67 65 64 62 58 58 57 55 53 52 52 54 57 56 53 52 54 52 52 53 52 52 51 51 49
50 53 63 62 61 54 52 52 50 54 60 61 58 83 90 85 79 76 79 84 83 80 76 81 78 68 62 57 57 56 56 55 54 51 56 58 57 60 60 58 54 56 53 52 53 51 51 51 49
49 49 68 58 55 49 46 48 50 52 68 66 66 73 96 89 79 82 85 89 87 84 84 86 84 77 75 70 57 56 57 60 59 58 58 61 64 60 60 60 55 55 54 53 53 52 51 52 52
43 41 54 48 50 42 46 50 58 61 67 69 82 82 83 80 80 89 91 91 89 81 88 89 85 80 78 73 66 68 60 60 64 65 60 68 75 72 73 56 55 53 54 54 53 53 53 55 58
36 41 36 35 39 39 41 50 63 63 70 77 94 86 83 82 84 94 91 96 93 92 88 89 85 81 77 64 73 69 59 66 68 67 65 69 72 66 64 57 57 56 59 57 56 55 59 59 60
36 34 29 24 26 35 36 54 58 67 77 68 88 94 86 84 88 86 89 91 92 90 82 81 80 82 78 68 65 67 74 71 71 72 72 73 67 71 75 74 70 70 64 66 63 63 62 63 63
35 27 25 22 19 31 38 51 62 68 66 64 84 82 82 86 84 85 88 90 91 89 80 70 64 64 62 66 65 67 72 77 81 71 74 73 73 71 75 74 73 72 74 71 71 70 67 65 63
30 24 21 17 21 37 46 58 68 84 76 76 78 80 84 82 80 83 82 84 91 89 74 70 67 64 59 60 68 75 76 70 75 82 72 70 70 73 73 73 73 74 75 75 76 73 69 66 65
20 19 18 20 46 49 56 58 66 81 69 75 78 82 78 79 81 85 85 89 87 73 70 63 59 58 56 58 65 66 63 77 79 74 62 64 69 73 73 74 73 74 78 77 79 76 73 69 67
21 21 23 39 42 51 42 67 96 79 66 73 74 74 74 75 76 77 78 72 60 58 56 57 57 56 54 64 60 64 69 69 70 66 66 66 67 70 72 74 75 78 78 77 77 72 72 70 65
22 23 26 45 55 46 40 94 86 70 70 74 73 76 79 75 66 61 58 54 55 61 69 66 56 58 62 63 64 67 67 72 75 76 72 68 67 69 72 72 74 78 78 80 79 78 75 72 73
26 31 27 29 66 61 60 91 72 67 68 73 76 78 74 67 63 58 57 62 64 62 62 60 54 55 55 56 61 66 67 73 85 74 73 70 70 69 73 74 76 78 78 80 81 79 81 77 76
28 28 47 58 69 79 90 90 78 73 74 83 81 79 74 68 60 52 52 53 51 50 48 47 48 51 51 55 56 60 64 60 60 66 68 74 74 71 74 74 76 78 80 81 84 85 79 79 79
24 26 40 76 64 77 83 86 84 78 84 88 83 79 72 64 53 50 57 52 48 46 47 51 58 58 49 54 62 66 84 74 66 65 68 72 76 74 76 77 77 80 82 85 85 86 81 79 81
25 29 67 63 64 73 76 88 78 76 79 78 79 75 66 59 57 57 56 53 52 55 62 61 63 63 63 54 65 74 72 68 69 70 68 71 75 76 71 79 79 81 86 84 86 87 87 83 83
27 28 59 60 67 70 70 75 76 73 75 73 66 62 61 61 64 63 59 60 64 69 68 63 66 66 57 54 59 62 64 66 69 73 75 74 74 74 79 79 82 82 85 87 89 89 84 86 84
27 22 47 66 76 93 63 92 83 74 74 74 74 76 67 61 70 68 66 71 77 78 72 68 65 59 59 64 66 66 75 74 76 82 82 75 72 73 75 77 79 81 82 82 87 80 85 88 87
25 41 52 58 54 61 67 78 87 81 84 86 82 71 67 77 73 75 73 78 77 78 78 67 59 60 65 66 66 73 74 80 80 80 76 76 75 72 71 76 78 81 82 81 83 85 88 90 92
32 32 32 34 38 62 67 67 80 92 83 83 75 69 73 70 77 78 76 76 78 82 79 61 60 61 66 69 70 72 75 77 75 76 78 78 79 76 72 70 77 78 80 78 82 85 89 90 92
20 24 37 41 50 48 61 65 81 70 71 72 77 79 70 73 83 83 80 77 79 86 69 59 59 65 68 68 69 71 72 70 71 72 79 74 76 76 70 76 76 75 78 79 81 83 85 90 94
24 22 35 29 65 70 61 76 78 76 75 73 72 69 70 83 84 82 76 78 88 71 70 55 55 58 66 67 65 66 67 71 69 71 74 75 78 74 76 76 76 76 78 80 82 83 91 86 86
28 31 32 65 74 73 81 81 71 72 76 72 73 70 77 86 87 81 77 86 72 72 74 63 56 61 66 64 63 60 64 66 68 67 72 77 76 65 66 77 79 79 80 82 83 89 82 81 82
22 26 34 53 68 69 85 84 76 81 82 74 74 76 77 83 85 78 86 74 72 68 61 54 52 63 62 57 60 57 63 65 67 71 72 75 74 76 78 79 80 81 83 84 79 82 79 82 80
25 28 41 51 65 66 77 85 72 70 72 73 73 73 77 87 82 84 79 73 67 59 53 57 60 61 54 55 57 62 67 66 69 73 73 72 76 77 76 77 80 79 82 77 81 79 74 78 81
24 32 34 41 46 87 77 85 75 69 67 68 73 73 82 80 82 89 78 73 71 61 61 51 59 54 54 54 60 66 68 68 69 67 66 72 72 73 73 74 76 73 67 71 82 80 77 78 83
Wind_Speed
7 6 2 3 5 5 1 1 4 2 3 4 3 6 9 4 5 2 4 5 7 9 7 10 12 13 13 13 13 13 13 12 12 13 14 15 14 14 15 15 14 15 16 17 17 17 17 17 16
5 3 3 2 6 4 5 1 2 1 1 10 9 5 5 6 4 6 3 5 9 9 6 7 12 14 14 14 14 13 12 12 13 13 14 14 15 15 15 16 16 15 16 17 18 17 17 18 17
4 2 3 5 4 3 3 3 3 2 6 5 7 6 4 4 5 4 8 10 11 8 5 9 15 15 14 14 13 13 12 12 12 13 13 14 15 15 16 16 16 16 16 17 16 17 16 17 17
2 4 4 5 2 3 3 2 5 5 4 4 7 10 6 2 11 9 12 13 11 7 9 13 15 15 13 12 12 13 12 12 12 12 12 12 13 14 15 15 15 15 15 16 17 17 16 17 17
4 3 4 3 3 4 4 4 3 4 6 1 4 9 8 4 14 16 13 12 11 9 9 9 15 13 12 12 12 11 12 11 12 11 11 12 12 13 12 14 13 13 14 14 16 17 17 17 17
4 3 5 2 3 5 5 6 4 3 4 6 7 7 5 15 15 14 12 12 10 10 9 8 12 12 13 12 12 12 12 11 11 10 10 12 14 15 14 14 12 12 12 14 15 15 15 16 16
5 4 3 2 2 5 4 3 2 3 2 2 5 6 7 12 13 13 11 9 9 9 9 6 6 9 12 12 12 11 11 10 8 8 10 12 13 15 15 15 14 14 15 15 15 14 15 15 15
5 5 2 2 1 5 2 4 3 4 1 2 2 6 9 13 16 13 11 9 8 7 7 7 6 6 5 5 11 10 10 11 12 13 13 14 15 15 14 16 14 13 15 15 15 14 14 15 16
3 5 2 4 6 5 4 3 3 1 5 5 9 5 15 22 18 14 11 9 5 5 5 5 5 4 4 4 6 9 10 11 11 10 13 10 4 6 10 14 15 14 15 14 14 14 15 16 16
4 4 8 6 5 5 6 5 8 5 4 4 13 18 18 17 19 18 12 8 5 3 3 4 4 4 4 4 6 5 5 4 4 4 5 5 6 6 7 12 15 15 15 14 15 15 15 12 4
4 5 5 7 9 5 8 6 5 8 4 6 12 20 19 23 12 11 11 8 6 4 3 4 4 3 3 3 2 2 3 3 3 5 5 5 4 4 4 3 4 4 10 4 6 6 4 6 5
2 6 5 7 5 4 6 8 6 4 6 9 23 22 18 17 13 11 9 8 7 5 4 4 3 2 2 2 3 3 3 3 3 3 5 4 3 4 4 3 4 4 3 5 4 3 5 6 6
4 5 3 9 9 1 6 7 7 11 14 21 21 18 16 12 11 7 7 8 7 5 5 4 3 2 3 4 3 2 2 2 1 3 3 3 3 3 3 4 4 4 4 4 4 4 4 5 5
5 5 8 6 6 6 8 5 7 9 12 17 16 13 11 12 10 9 9 8 6 7 5 4 5 5 5 4 4 2 2 2 0 2 2 5 3 3 3 3 4 4 3 3 3 3 3 3 4
3 4 4 11 8 3 4 11 10 8 13 16 15 13 12 13 10 10 11 10 10 8 8 8 6 7 5 5 4 4 4 3 2 2 4 4 5 5 4 4 4 4 4 5 4 4 4 4 4
3 5 4 5 14 6 6 4 7 12 17 17 19 17 15 14 13 13 13 12 11 12 11 9 6 6 5 6 5 3 3 3 3 3 3 5 4 4 4 3 4 4 4 3 4 3 4 3 3
6 2 3 3 18 1 7 7 11 10 15 16 16 17 15 15 15 13 14 13 12 10 8 8 6 7 7 6 4 5 6 6 4 4 4 5 4 3 2 2 3 4 4 3 3 3 2 3 4
3 1 3 3 8 17 19 14 13 10 17 14 15 14 13 13 13 13 15 12 11 9 8 9 7 8 5 4 3 3 3 4 4 4 4 6 4 4 2 3 4 4 3 4 4 3 3 3 2
3 3 4 2 4 11 14 13 10 9 12 13 12 11 12 12 11 12 12 9 10 9 9 9 7 6 6 4 3 3 2 2 3 4 6 7 6 5 5 4 4 4 4 4 4 3 3 3 2
4 5 4 5 7 10 12 12 8 7 7 9 12 11 12 12 11 11 10 8 8 7 7 6 6 7 5 3 2 0 1 1 1 3 5 6 6 6 5 5 5 5 4 6 5 3 3 2 2
4 6 7 7 7 7 13 6 4 6 8 10 9 9 9 10 10 10 9 7 5 6 4 5 5 5 5 5 3 3 3 3 4 4 3 4 5 5 5 5 4 5 3 4 4 3 3 2 2
6 7 16 18 5 6 1 3 3 6 7 7 6 6 6 8 7 5 7 4 3 3 4 3 3 5 5 5 5 6 2 3 2 3 3 5 6 6 6 6 5 5 3 5 4 3 2 1 3
7 10 12 7 6 6 3 4 3 9 7 7 6 7 7 6 7 6 6 4 4 4 1 0 5 5 6 7 6 4 5 2 3 3 6 6 6 7 6 6 6 6 4 5 5 5 4 2 2
12 9 9 6 4 3 2 4 3 5 7 10 9 9 8 7 6 5 4 2 2 2 2 4 5 6 7 6 7 7 6 6 5 5 5 5 4 5 7 6 6 6 5 5 5 5 5 4 4
7 7 3 1 2 5 1 3 1 5 9 14 15 11 9 7 7 6 5 2 3 1 2 5 6 6 6 7 6 6 5 6 6 6 4 7 5 4 8 7 7 7 6 6 5 5 5 4 3
3 8 7 5 5 3 2 3 2 3 8 12 10 11 9 8 6 6 5 4 1 3 4 5 6 5 5 5 6 6 6 4 4 4 5 5 4 6 7 7 8 8 7 6 5 3 3 4 5
3 3 5 8 3 3 2 1 2 6 8 9 11 10 9 8 7 6 5 1 2 3 5 5 5 5 5 6 6 7 6 6 6 8 6 4 6 7 8 8 8 8 7 6 5 3 5 6 6
4 6 4 4 4 3 2 3 4 7 7 8 10 9 8 6 7 5 3 2 2 4 5 5 5 5 4 5 6 5 6 6 6 6 8 8 8 8 9 9 9 9 7 5 5 4 7 7 7
2 3 7 6 4 5 1 3 1 8 11 12 9 9 9 8 7 5 3 2 4 5 5 5 6 4 5 6 5 6 6 7 7 6 7 9 9 9 9 9 9 9 7 6 5 7 9 10 10
3 4 4 6 3 2 4 2 8 8 11 9 8 8 7 8 7 6 3 3 4 5 5 5 4 5 4 4 5 6 6 7 7 8 9 9 9 9 9 9 9 9 11 10 7 10 11 12 12
Wind_Direction
124 140 118 44 56 64 273 92 173 310 311 124 61 82 124 65 23 339 39 95 113 104 114 110 114 111 103 96 91 85 79 75 73 70 68 60 59 57 49 44 41 39 39 37 37 33 29 26 28
141 147 45 75 80 46 303 212 280 41 314 118 106 121 59 76 71 112 89 90 94 97 91 107 115 107 99 95 88 83 79 73 71 69 66 63 56 52 49 44 40 38 36 31 32 31 25 28 26
157 61 79 89 105 148 230 209 149 90 50 147 115 66 84 97 131 119 122 112 96 94 97 110 105 99 93 91 91 84 81 74 71 69 67 58 51 47 42 38 37 33 29 28 23 27 24 25 26
77 11 33 79 192 244 191 240 150 179 123 49 114 86 97 351 160 132 127 114 103 86 92 101 101 95 96 100 90 88 86 79 72 68 61 54 46 36 33 30 29 27 26 17 24 22 26 19 16
35 61 51 46 279 277 230 231 213 161 120 63 137 153 133 56 105 113 119 114 108 97 93 93 91 99 100 96 90 92 86 77 72 66 54 44 34 29 21 22 19 19 16 25 22 21 17 15 9
38 94 57 294 273 275 269 221 274 99 141 158 95 122 81 120 118 118 113 109 101 98 95 92 102 101 98 98 97 93 84 75 63 55 42 32 31 23 23 20 10 11 28 25 17 17 13 12 5
111 83 192 236 285 304 247 121 286 120 94 57 105 86 103 120 114 113 104 88 88 86 88 77 91 112 113 109 101 92 78 63 52 47 35 45 35 28 22 21 23 24 18 12 11 10 13 15 10
110 94 153 244 220 271 283 162 91 34 72 119 74 157 158 141 131 107 89 67 71 89 103 108 101 108 108 108 107 92 78 65 59 62 55 49 40 34 29 34 27 21 13 11 7 18 17 17 13
115 64 205 228 168 236 164 165 41 52 115 61 5 33 125 134 120 106 102 97 77 76 100 109 104 91 80 72 76 54 72 69 56 48 56 45 33 36 23 30 26 22 18 16 19 24 22 22 14
100 139 216 218 195 202 197 151 151 137 164 94 74 97 117 126 135 133 136 131 125 147 116 76 71 66 46 53 53 52 56 59 53 59 53 49 36 36 47 31 31 21 28 29 27 24 23 20 3
178 216 210 254 232 214 175 148 184 127 272 194 160 144 142 139 133 131 135 141 153 141 108 93 74 56 49 71 60 44 47 25 35 51 59 49 42 29 30 24 15 7 24 13 15 10 12 6 2
225 236 215 278 250 159 192 142 104 38 343 102 122 137 139 146 141 145 135 137 137 124 106 104 109 80 30 50 43 42 54 21 30 45 62 59 40 30 31 28 17 22 3 2 5 4 357 0 355
214 270 266 263 289 208 83 74 101 47 73 99 117 127 134 121 119 114 122 111 107 102 104 107 114 39 48 53 57 37 28 21 13 57 69 76 67 58 37 24 22 17 1 5 355 356 354 353 347
205 239 282 321 22 32 101 82 75 74 101 93 104 113 111 119 114 113 108 108 104 109 95 106 73 73 75 78 65 40 21 340 319 96 70 67 72 68 47 21 15 13 4 352 347 340 339 336 337
260 285 31 17 5 78 294 34 51 103 102 105 108 110 105 110 109 108 114 113 107 97 98 74 66 47 45 55 49 35 9 13 45 45 34 37 39 42 33 20 7 353 347 349 349 342 340 340 333
23 53 61 10 2 24 56 65 33 66 88 84 82 80 82 82 93 96 99 96 84 74 66 52 48 60 48 43 34 22 14 3 19 27 13 17 24 43 28 14 352 332 336 330 337 318 321 322 324
360 224 78 0 19 262 58 99 73 79 90 84 86 89 91 84 69 72 79 78 74 75 73 62 47 40 31 32 36 33 39 40 30 27 0 344 5 34 26 342 316 331 333 339 332 305 247 296 314
245 54 82 64 8 65 77 80 68 66 86 88 88 94 90 85 83 85 76 71 71 66 66 62 48 31 18 29 44 44 52 37 29 14 11 9 6 12 347 340 337 344 336 329 332 291 294 263 291
173 118 108 124 182 71 85 85 86 93 90 103 112 101 103 98 94 79 78 76 79 63 62 53 48 19 31 18 4 18 23 337 16 15 9 9 6 11 7 346 340 342 335 310 309 293 311 305 321
175 127 102 82 111 88 105 92 115 103 100 112 117 119 115 106 87 81 74 62 60 66 60 56 52 36 23 19 352 56 303 6 1 348 3 5 2 353 352 349 332 336 334 334 331 335 313 284 322
193 166 176 145 104 77 128 104 122 80 110 101 99 113 111 124 121 106 95 70 64 63 57 59 46 45 33 28 11 3 18 13 2 344 337 326 338 342 346 335 327 321 326 313 303 295 310 301 305
265 186 145 148 114 155 226 215 191 154 127 105 104 95 104 112 100 102 92 91 91 59 50 65 61 49 46 31 46 47 40 351 313 298 306 327 340 333 330 331 328 316 313 310 299 296 275 260 276
224 121 123 108 84 103 2 87 308 136 164 151 153 145 137 134 121 122 127 123 62 44 252 213 77 62 44 44 46 43 25 335 304 322 337 331 322 321 319 318 315 309 304 292 289 302 288 253 259
131 83 62 57 83 49 206 127 211 188 169 164 168 157 147 136 130 131 111 105 70 276 272 76 73 50 39 37 31 34 22 348 351 338 332 324 310 309 313 314 307 294 286 285 288 290 278 275 256
71 79 64 5 25 224 359 124 275 255 174 171 164 158 150 137 146 153 154 161 205 107 52 80 60 47 29 31 23 14 10 358 344 329 313 317 314 303 307 307 306 301 291 287 287 292 294 291 273
144 149 155 206 191 230 17 196 270 4 78 114 130 134 132 141 161 164 179 194 163 111 76 74 54 43 29 22 10 6 2 344 325 314 308 300 293 302 297 302 305 302 301 300 301 303 306 300 291
181 78 151 106 49 95 177 319 34 84 75 108 126 140 150 161 165 170 174 180 135 81 71 67 58 55 38 22 9 358 347 344 327 321 314 307 307 317 323 315 314 317 317 326 339 339 314 303 293
123 151 82 26 138 242 244 213 209 178 159 146 152 159 161 152 153 151 151 143 102 80 85 67 59 57 32 19 8 348 335 338 333 329 331 329 325 323 327 328 330 327 332 348 346 323 314 294 300
59 62 56 109 110 161 178 273 340 180 168 170 167 168 163 150 147 144 165 90 78 97 84 76 57 57 29 13 351 351 346 345 342 342 336 335 328 334 335 335 333 334 328 324 324 320 311 307 303
90 99 116 116 223 68 130 254 326 155 156 151 156 144 125 133 134 144 143 104 88 83 64 69 61 47 16 352 352 355 355 350 353 349 343 336 335 334 335 336 336 336 334 324 314 314 310 309 309